Lid_Strength_Index
13 13 14 14 15 15 15 15 15 15 15 15 15 15 15 15 15 14 14 9 7 5 4 3 2 2 1 1 1 1 0 0 0 -0 -0 -0 -0 -0 -1 -1 -1 -0 -0
13 13 14 15 15 15 16 16 16 16 16 15 15 15 15 15 15 15 15 14 8 6 5 4 3 2 2 2 1 1 0 -0 0 0 0 -0 -1 -1 -0 -2 -2 -2 -2
13 14 14 15 16 16 16 16 16 16 16 16 16 16 15 15 15 15 14 14 13 9 5 4 4 3 3 2 3 2 2 2 2 1 2 1 0 -0 -1 -1 -1 -1 -2
13 14 14 15 16 16 16 16 17 17 17 17 17 17 16 16 15 15 15 15 14 13 9 7 6 5 5 5 4 4 2 1 2 3 3 2 2 2 2 1 0 0 -1
14 14 14 15 16 16 17 16 17 17 18 17 17 17 17 17 16 15 16 15 15 14 14 11 11 10 8 6 5 3 3 3 4 4 3 2 3 3 2 2 1 1 2
14 15 15 15 16 17 17 17 17 17 17 18 17 17 17 17 17 17 17 15 16 15 15 16 15 14 10 8 7 6 5 5 4 4 4 4 4 3 3 2 2 2 2
15 15 16 16 16 17 17 17 17 18 18 18 18 18 18 17 17 17 17 17 16 16 16 16 16 15 14 10 8 7 6 5 5 5 5 5 5 5 4 4 3 3 2
15 15 16 16 17 18 18 18 17 18 18 18 19 19 20 19 18 17 17 17 17 17 17 16 16 16 15 15 12 8 7 6 6 6 7 7 6 6 5 5 4 4 3
16 16 16 16 17 17 17 18 18 18 18 19 19 18 20 20 20 18 18 18 18 18 18 17 16 16 16 15 13 11 9 9 9 8 8 8 7 7 6 5 5 4 4
16 16 16 16 17 17 18 18 18 18 18 19 18 17 18 19 20 21 19 18 18 18 18 17 17 16 16 15 13 12 12 11 11 11 10 9 9 8 7 6 6 5 4
16 16 16 17 17 17 18 18 18 18 19 19 19 19 19 19 19 20 21 20 19 19 18 18 17 17 16 15 15 14 13 13 13 12 12 11 10 9 9 8 7 6 5
17 17 17 17 17 17 18 18 18 18 19 19 19 19 19 20 20 20 21 20 20 19 19 18 18 17 16 16 16 15 15 14 13 13 12 12 11 11 10 9 8 7 6
17 17 17 17 18 17 18 18 18 18 18 19 19 19 19 19 18 19 20 20 21 19 19 18 18 17 17 18 18 16 16 15 14 13 13 13 12 12 11 10 9 8 8
15 16 17 17 17 18 18 18 18 18 19 18 19 19 19 19 18 18 19 20 21 20 20 20 18 18 18 18 18 17 19 17 15 14 13 13 12 12 11 11 10 9 9
16 17 17 17 18 18 18 18 18 19 19 19 19 19 19 19 19 19 19 19 20 22 21 20 20 18 18 19 18 19 19 17 15 14 14 13 12 12 11 11 11 10 9
16 17 17 17 18 18 18 18 19 19 19 19 19 19 19 19 19 19 18 19 20 22 23 21 20 20 19 19 18 18 18 16 16 15 14 13 12 12 11 11 11 11 10
16 17 17 17 18 18 18 18 18 19 19 20 20 20 20 19 20 20 20 21 21 21 23 22 21 21 20 20 19 18 18 18 17 14 13 12 11 11 11 11 11 11 10
16 16 17 18 18 18 18 18 19 19 19 20 20 20 20 20 21 21 21 22 22 22 22 23 22 22 21 20 19 19 18 17 16 15 13 11 11 11 11 11 11 11 11
16 16 17 17 18 18 18 18 19 19 20 20 20 20 20 21 22 22 22 22 22 22 22 23 23 21 21 20 20 19 18 17 16 14 13 12 12 12 11 11 11 11 11
17 17 17 17 17 18 18 19 19 19 19 20 20 20 21 21 21 22 22 22 22 23 23 23 22 21 20 19 18 18 18 17 17 15 14 14 13 12 12 11 12 12 12
17 17 18 18 18 18 18 19 19 19 20 20 20 20 21 20 19 20 21 22 22 23 23 23 22 21 20 19 19 18 18 18 17 16 16 15 15 14 14 13 13 12 12
17 17 18 18 19 18 16 15 17 19 19 20 21 21 21 20 18 17 17 18 20 24 28 25 20 20 19 18 18 18 18 18 19 16 17 18 16 17 16 15 13 11 11
17 18 18 18 18 18 16 14 15 18 19 20 20 21 21 20 20 19 16 17 17 17 18 19 19 18 19 18 18 18 17 17 18 17 18 20 18 18 16 15 13 12 11
18 18 18 18 18 18 15 14 15 18 19 20 20 21 21 20 20 19 19 18 18 18 17 17 18 18 18 17 17 16 17 19 19 19 18 21 18 19 17 16 13 12 12
18 17 17 17 18 18 15 14 15 19 19 20 20 20 20 20 18 17 20 20 20 19 16 15 14 14 14 14 15 20 25 26 24 21 19 20 20 19 18 17 16 13 12
17 17 17 17 17 18 15 13 15 19 20 20 20 20 18 19 17 16 20 21 22 20 19 20 18 18 17 18 17 18 23 28 25 26 18 20 20 19 21 18 16 16 16